Tracking 29892 objects as of 21-Nov-2024
HD Live streaming from Space Station
objects crossing your sky now

STARLINK-5884

Track STARLINK-5884 now!
10-day predictions
STARLINK-5884 is classified as:


NORAD ID: 55957
Int'l Code: 2023-037AV
Perigee: 577.2 km
Apogee: 581.2 km
Inclination: 70.0 °
Period: 96.1 minutes
Semi major axis: 6950 km
RCS: Unknown
Launch date: March 17, 2023
Source: United States (US)
Launch site: AIR FORCE WESTERN TEST RANGE (AFWTR)
Your satellite tracking list
Your tracking list is empty




NASA's NSSDC Master Catalog

Two Line Element Set (TLE):
1 55957U 23037AV  24325.57387224 -.00000726  00000-0 -53044-4 0  9997
2 55957  70.0001  19.9341 0002917 270.6898  89.3926 14.98334962 93454
Source of the keplerian elements: AFSPC